Location: Artiguedieu
(43.5000°N, 0.5454°E)
Time: 13:11:22
(UTC+00:00)

Cosmos 2341 Rocket - Pass Details

Date: 06 December 2020
Orbit: 969 x 1004 km, 82.9° (Epoch: 28 January)

Event Time Altitude Azimuth Distance (km) Brightness Sun altitude
Rises 05:11:53 0° 177° (S) 3,645 7.2 -21.8°
Reaches altitude 10° 05:14:23 10° 175° (S) 2,703 6.5 -21.4°
Maximum altitude 05:20:30 68° 94° (E) 1,045 4.3 -20.3°
Drops below altitude 10° 05:26:42 10° 13° (NNE) 2,733 6.3 -19.2°
Sets 05:29:14 0° 11° (N) 3,690 7.0 -18.8°
